Change the Weather History Date:

Monday, February 4, 2013

  Actual Average Record
Temperature  
Mean Temperature 54 °F -  
Max Temperature 64 °F 59 °F 77 °F (2008)
Min Temperature 44 °F 42 °F 24 °F (2009)
Degree Days  
Heating Degree Days 11    
Growing Degree Days 4 (Base 50)    
Moisture  
Dew Point 40 °F    
Average Humidity 60    
Maximum Humidity 84    
Minimum Humidity 35    
Precipitation  
Precipitation 0.00 in - - ()
Sea Level Pressure  
Sea Level Pressure 30.03 in    
Wind  
Wind Speed 4 mph (SE)    
Max Wind Speed 9 mph    
Max Gust Speed -    
Visibility 10 miles    
Events Rain    
Averages and records for this station are not official NWS values.
T = Trace of Precipitation, MM = Missing Value Source: NWS Daily Summary

Daily Weather History Graph

Daily Weather History Graph

Search for Another Location

Airport or City:

Trip Planner

Search our weather history database for the weather conditions in past years. The results will help you decide how hot, cold, wet, or windy it might be!

Date:

Astronomy

Feb. 04, 2013 Rise Set
Actual Time 6:37 AM CST 5:27 PM CST
Civil Twilight 6:12 AM CST 5:52 PM CST
Nautical Twilight 5:43 AM CST 6:20 PM CST
Astronomical Twilight 5:15 AM CST 6:49 PM CST
Moon 1:07 AM CST (2/4) 11:56 AM CST (2/4)
Length of Visible Light 11h 39m
Length of Day
10h 49m
Last Quarter, 37% of the Moon is Illuminated
Feb 4
Last Quarter
Feb 10
New
Feb 17
First Quarter
Feb 25
Full
Mar 4
Last Quarter

Hourly Weather History & Observations

Time (CST) Temp. Windchill Dew Point Humidity Pressure Visibility Wind Dir Wind Speed Gust Speed Precip Events Conditions
12:56 AM 46.9 °F - 39.0 °F 74% 30.07 in 10.0 mi NNW 3.5 mph - N/A   Clear
1:56 AM 46.9 °F - 36.0 °F 66% 30.07 in 10.0 mi NW 4.6 mph - N/A   Clear
2:56 AM 46.0 °F 44.8 °F 36.0 °F 68% 30.07 in 10.0 mi North 3.5 mph - N/A   Clear
4:56 AM 45.0 °F 43.5 °F 34.0 °F 65% 30.06 in 10.0 mi NNE 3.5 mph - N/A   Clear
5:56 AM 45.0 °F 42.6 °F 32.0 °F 60% 30.06 in 10.0 mi NNE 4.6 mph - N/A   Mostly Cloudy
6:56 AM 44.1 °F 42.5 °F 33.1 °F 65% 30.07 in 10.0 mi NE 3.5 mph - N/A   Mostly Cloudy
7:56 AM 48.0 °F - 33.1 °F 56% 30.09 in 10.0 mi Calm Calm - N/A   Mostly Cloudy
8:56 AM 51.1 °F - 34.0 °F 52% 30.08 in 10.0 mi East 6.9 mph - N/A   Mostly Cloudy
9:56 AM 55.0 °F - 33.1 °F 43% 30.10 in 10.0 mi ESE 5.8 mph - N/A   Mostly Cloudy
10:56 AM 59.0 °F - 34.0 °F 39% 30.09 in 10.0 mi Calm Calm - N/A   Mostly Cloudy
11:56 AM 64.0 °F - 36.0 °F 35% 30.08 in 10.0 mi Calm Calm - N/A   Mostly Cloudy
12:56 PM 63.0 °F - 39.0 °F 41% 30.04 in 10.0 mi SW 4.6 mph - N/A   Mostly Cloudy
1:56 PM 63.0 °F - 41.0 °F 45% 30.02 in 10.0 mi South 5.8 mph - N/A   Mostly Cloudy
2:56 PM 63.0 °F - 39.9 °F 43% 30.01 in 10.0 mi West 6.9 mph - N/A   Mostly Cloudy
3:56 PM 63.0 °F - 42.1 °F 46% 30.00 in 10.0 mi SSW 4.6 mph - N/A   Mostly Cloudy
4:56 PM 60.1 °F - 45.0 °F 57% 30.00 in 10.0 mi South 5.8 mph - N/A   Mostly Cloudy
5:56 PM 57.9 °F - 46.0 °F 65% 30.00 in 10.0 mi South 5.8 mph - N/A   Overcast
6:56 PM 57.9 °F - 46.0 °F 65% 29.99 in 10.0 mi SSE 9.2 mph - N/A   Overcast
7:56 PM 57.0 °F - 48.0 °F 72% 29.99 in 10.0 mi SE 6.9 mph - N/A   Overcast
8:56 PM 57.9 °F - 48.0 °F 70% 29.99 in 10.0 mi SSE 4.6 mph - N/A   Overcast
9:56 PM 55.9 °F - 51.1 °F 84% 29.98 in 10.0 mi Calm Calm - 0.00 in Rain Light Rain
10:56 PM 57.9 °F - 51.1 °F 78% 29.97 in 10.0 mi Calm Calm - 0.00 in Rain Light Rain
11:56 PM 57.0 °F - 51.1 °F 81% 29.96 in 8.0 mi Calm Calm - 0.00 in   Overcast